Regional Weather Roundup
Issued by NWS Newport/Morehead, NC

Current Version | Previous Version | Text Only | Print | Product List | Glossary On
Versions: 1 2 3 4 5 6 7 8 9 10 11 12 13 14 15 16 17 18 19 20 21 22 23 24 25 26 27 28 29 30 31 32 33 34 35 36 37 38 39 40 41 42 43 44 45 46 47 48 49 50
911 ASUS42 KMHX 200825 RWRMHX WEATHER ROUNDUP FOR EASTERN NORTH CAROLINA NATIONAL WEATHER SERVICE NEWPORT/MOREHEAD CITY NC 400 AM EDT FRI APR 20 2018 NOTE: "FAIR" INDICATES FEW OR NO CLOUDS BELOW 12,000 FEET WITH NO SIGNIFICANT WEATHER AND/OR OBSTRUCTIONS TO VISIBILITY NCZ015>017-031-032-045>047-102-103-200900- NORTH COAST CITY SKY/WX TMP DP RH WIND PRES REMARKS EDENTON FAIR 41 32 70 CALM 30.23R ELIZABETH CITY FAIR 39 31 72 W7 30.21R KITTY HAWK FAIR 46 27 47 N13G23 30.19S MANTEO FAIR 46 28 48 N20G26 30.21S $$ NCZ045>047-081-094-103-104-200900- CENTRAL COAST CITY SKY/WX TMP DP RH WIND PRES REMARKS FRISCO FAIR 49 33 54 N17G26 30.20R $$ NCZ095-097-098-100-101-200900- SOUTHERN COAST CITY SKY/WX TMP DP RH WIND PRES REMARKS BEAUFORT FAIR 49 35 58 N15 30.21R CEDAR ISLAND NOT AVBL JACKSONVILLE FAIR 47 32 56 N16 30.23R PINEY ISLAND NOT AVBL WILMINGTON FAIR 47 31 53 N10 30.22R $$ NCZ011>013-027>030-043-044-078>080-089-090>093-098-200900- COASTAL PLAIN CITY SKY/WX TMP DP RH WIND PRES REMARKS AHOSKIE FAIR 35 31 85 CALM 30.24S CLINTON FAIR 45 32 60 N7 30.26R ELIZABETHTOWN FAIR 43 31 63 MISG 30.25R GOLDSBORO FAIR 44 30 56 CALM 30.24R GREENVILLE FAIR 39 32 75 CALM 30.25S HAVELOCK NOT AVBL KENANSVILLE FAIR 45 32 61 N7 30.25R KINSTON FAIR 42 33 70 N5 30.25R NEW BERN FAIR 45 33 63 N12 30.25R RICHLANDS FAIR 45 32 60 N6 30.24R ROCKY MOUNT FAIR 37 32 82 CALM 30.25R WASHINGTON FAIR 43 30 60 CALM 30.24S WHITEVILLE FAIR 46 31 54 N6 30.23R $$ AMZ130-135-150-152-154-156-158-170-250-252-270-ANZ085-086-088-633-658-670-200900- MARINE OBSERVATIONS STATION/POSITION TIME TEMP WIND PRES WAVE SWELL AIR SEA DIR/SP/G HT/PER HT/PER (UTC) (F) (DEG/KT/KT) (MB) (FT/S) (FT/S) CHESAPEAKE LIGHT NOT AVBL 64 E VA BEACH 0750 47 49 340/ 17/ 19 1021.8 8/ 7 3/15 DUCK 0800 48 51 350/ 21/ 26 1021.6 2 E DUCK 0800 49 N/A 7/ 6 OREGON INLET 0748 46 58 350/ 15/ 20 1022.5 13E OREGON INLT 0748 52 N/A 8/ 7 5/ 7 HATTERAS CG 0800 50 63 360/ 23/ 26 1022.5 DIAMOND BUOY 0810 51 67 360/ 25/ 33 1022.6 CAPE LOOKOUT 0800 10/ 21/ 30 1023.1 BEAUFORT LAB 0800 50 62 20/ 13/ 18 1023.2 30 SE NEW RVR IN 0808 55 65 40/ 19/ 25 1022.1 30 SE NEW RVR IN 0800 65 N/A 6/ 5 27 SE WRIGHTSVLE 0808 54 65 30/ 25/ 39 1022.5 5 SE WRIGHTSVLE 0808 51 60 10/ 19/ 25 1022.1 225 S CAPE HAT 0810 69 71 20/ 21/ 27 1016.7 41 SE CHARLESTON 0810 59 67 30/ 25/ 31 1021.4 $$

USA.gov is the U.S. government's official web portal to all federal, state and local government web resources and services.